Regional Weather Roundup
Issued by NWS

Home | Current Version | Previous Version | Graphics & Text | Print | Product List | Glossary On
Versions: 1 2 3 4 5 6 7 8 9 10 11 12 13 14 15 16 17 18 19 20 21 22 23 24 25 26 27 28 29 30 31 32 33 34 35 36 37 38 39 40 41 42 43 44 45 46 47 48 49 50
000
ASUS43 KLOT 271808
RWRIL

ILLINOIS REGIONAL WEATHER ROUNDUP
NATIONAL WEATHER SERVICE CHICAGO/ROMEOVILLE IL
100 PM CDT THU APR 27 2017

NOTE: "FAIR" INDICATES FEW OR NO CLOUDS BELOW 12,000 FEET WITH NO
SIGNIFICANT WEATHER AND/OR OBSTRUCTIONS TO VISIBILITY.

* THESE STATIONS ARE NOT UNDER NWS QUALITY CONTROL. THEY ALSO MAY NOT
  REPORT WEATHER SUCH AS PRECIPITATION OR FOG.

ILZ001-002-007-009-015-016-024-271900-
NORTHWEST ILLINOIS

CITY           SKY/WX    TMP DP  RH WIND       PRES   REMARKS
MOLINE         CLOUDY    43  34  70 W20G26    29.66R
6HR MIN TEMP:  39; 6HR MAX TEMP:  43; 6HR PCP:  0.01;

STERLING*      CLOUDY    42  37  82 W17G25    29.64R
SAVANNA*       CLOUDY    42  35  78 W17G23    29.63R
$$

ILZ003-004-008-010-011-017-018-271900-
NORTH CENTRAL ILLINOIS

CITY           SKY/WX    TMP DP  RH WIND       PRES   REMARKS
ROCKFORD       CLOUDY    42  36  79 W16G26    29.62R
6HR MIN TEMP:  41; 6HR MAX TEMP:  44; 6HR PCP:  0.07;

FREEPORT*      CLOUDY    40  36  84 W16G22    29.62R
ROCHELLE*      CLOUDY    41  38  87 W18       29.63R
DE KALB*       CLOUDY    44  39  83 W23       29.61R
PERU*          CLOUDY    44  37  78 SW18G24   29.65S
$$

ILZ005-006-012>014-019>023-271900-
NORTHEAST ILLINOIS

CITY           SKY/WX    TMP DP  RH WIND       PRES   REMARKS
CHICAGO-OHARE  CLOUDY    46  37  71 W17G29    29.60R
6HR MIN TEMP:  44; 6HR MAX TEMP:  52; 6HR PCP:  0.01;

CHICAGO-MIDWAY CLOUDY    46  38  73 W17G26    29.62R
6HR MIN TEMP:  45; 6HR MAX TEMP:  53; 6HR PCP: TRACE;

AURORA         CLOUDY    45  39  79 SW16G25   29.62R
6HR MIN TEMP:  44; 6HR MAX TEMP:  46; 6HR PCP:  0.02;

LANSING*       CLOUDY    46  40  81 W17G24    29.64R
JOLIET*        CLOUDY    47  40  77 SW13G21   29.64S
WAUKEGAN       CLOUDY    46  37  71 VRB7G18   29.56R
6HR MIN TEMP:  45; 6HR MAX TEMP:  52; 6HR PCP:  0.04;

DUPAGE AIRPORT CLOUDY    44  40  85 W18       29.61R
6HR MIN TEMP:  43; 6HR MAX TEMP:  47; 6HR PCP:  0.02;

KANKAKEE*      CLOUDY    47  39  73 W17G25    29.67R
WHEELING       CLOUDY    45  38  76 SW15G23   29.60R
6HR MIN TEMP:  45; 6HR MAX TEMP:  54; 6HR PCP:  0.02;

MORRIS*        CLOUDY    44  39  81 SW17      29.64R
ROMEOVILLE*    CLOUDY    45  42  90 W18       29.63R
NORTHERLY ISL    N/A     45  36  70 SW18        N/A
$$

LMZ740>746-271900-
SOUTHERN LAKE MICHIGAN

STATION/POSITION SKY/WX   TEMP    WIND        PRES    VSBY  WAVE
                          AIR SEA DIR/SP/G                  HT/PER
                          (F)     (DEG/KT/KT) (MB)    (MI)  (FT/S)
SOUTHERN BUOY              44 41  260/ 16/ 19  999.9          4/ 4
HARRISON CRIB              45     240/ 23/ 30   N/A
BURNHAM HARBOR             45     250/ 11/ 19   N/A
CALUMET HARBOR             45     250/ 10/ 17 1002.7R
BURNS HARBOR               47     260/ 23/ 26 1003.4R
MICHIGAN CITY              46     240/ 29/ 31   N/A
MICHIGAN CITY 6N           46 48                N/A           5/ 5
ST. JOSEPH                 46 48  250/ 19/ 25 1003.4          5/ 6
$$

ILZ025>027-034>036-040-047-049-050-058-095>099-271900-
WEST-CENTRAL ILLINOIS

CITY           SKY/WX    TMP DP  RH WIND       PRES   REMARKS
QUINCY         CLOUDY    49  39  68 W15       29.74R
GALESBURG*     CLOUDY    43  38  83 W14G20    29.69R
MACOMB*        CLOUDY    45  40  81 W20       29.73R
JACKSONVILLE*  CLOUDY    46  38  73 W15G22    29.75R
PITTSFIELD*    CLOUDY    48  39  70 W10G20    29.77R
$$

ILZ028>032-037-038-041>044-048-051>054-059>061-271900-
CENTRAL ILLINOIS

CITY           SKY/WX    TMP DP  RH WIND       PRES   REMARKS
PONTIAC        CLOUDY    47  42  84 SW18      29.68R
BLOOMINGTON    CLOUDY    44  39  82 W17G23    29.70R
DECATUR        CLOUDY    48  42  80 SW14      29.73R
PEORIA         CLOUDY    46  39  76 W17       29.69R
6HR MIN TEMP:  41; 6HR MAX TEMP:  47; 6HR PCP: TRACE;

LACON*         CLOUDY    45  37  76 SW12G22   29.67R
LINCOLN*       CLOUDY    48  41  76 W8        29.72R
SPRINGFIELD    CLOUDY    47  41  80 W15       29.74R
6HR MIN TEMP:  45; 6HR MAX TEMP:  48; 6HR PCP:  0.01;

TAYLORVILLE    CLOUDY    47  41  79 W17G23    29.75R
6HR MIN TEMP:  44; 6HR MAX TEMP:  48;

$$

ILZ033-039-045-046-055>057-062-063-271900-
EAST-CENTRAL ILLINOIS

CITY           SKY/WX    TMP DP  RH WIND       PRES   REMARKS
CHAMPAIGN      CLOUDY    48  43  82 W18       29.71R
RANTOUL*       CLOUDY    48  44  85 W15       29.71R
MATTOON        CLOUDY    49  45  86 W9G17     29.73R
PARIS*         CLOUDY    50  46  87 W15       29.74R
$$

ILZ079-100>102-271900-
SOUTHWEST ILLINOIS

CITY           SKY/WX    TMP DP  RH WIND       PRES   REMARKS
ALTON          CLOUDY    48  39  71 W17       29.79R
BELLEVILLE     CLOUDY    51  44  75 W6        29.78R
CAHOKIA*       CLOUDY    52  40  63 W13       29.79R
SPARTA*        CLOUDY    52  43  71 W8        29.81S
$$

ILZ064>066-069>071-074>076-080>082-084>086-088>090-092>094-271900-
SOUTH-CENTRAL ILLINOIS

CITY           SKY/WX    TMP DP  RH WIND       PRES   REMARKS
CARBONDALE     CLOUDY    52  45  77 W13       29.82R
6HR MIN TEMP:  49; 6HR MAX TEMP:  52;

CAIRO*         CLOUDY    53  47  79 SW9       29.83R
EFFINGHAM*     CLOUDY    51  46  84 SW13      29.78R
MARION         CLOUDY    54  48  82 SW12      29.83R
MT. VERNON     CLOUDY    50  44  80 W13       29.81R
CENTRALIA*     CLOUDY    51  45  77 W15G23    29.79R
SALEM*         CLOUDY    52  44  75 W14       29.78R
METROPOLIS*    CLOUDY    54  46  74 SW10      29.84R
$$

ILZ067-068-072-073-078-083-087-091-271900-
SOUTHEAST ILLINOIS

CITY           SKY/WX    TMP DP  RH WIND       PRES   REMARKS
LAWRENCEVILLE  CLOUDY    55  47  74 W16       29.76R
FLORA*         CLOUDY    53  46  77 SW14      29.78R
FAIRFIELD*     CLOUDY    52  46  78 SW8       29.78R
HARRISBURG*    CLOUDY    55  46  73 W13       29.81R
ROBINSON*      CLOUDY    52  46  79 W13       29.76S
CARMI*         CLOUDY    55  47  75 SW13      29.79R
$$

ABBREVIATIONS USED IN REMARKS
   TC - TEMPERATURE IN CELSIUS
  WCI - WIND CHILL INDEX
   HX - HEAT INDEX
  VSB - VISIBILITY
$$





USA.gov is the U.S. government's official web portal to all federal, state and local government web resources and services.